Flag for Canada Weather past 2 weeks in Charlottetown, Pr.Edward I, Canada

Now
55 °F

Partly cloudy.


Feels Like: 54 °F
Forecast: 51 / 66 °F
Wind: 7 mph from Southwest

Location: Charlottetown

Current Time: Sep 16, 2014 at 9:23:34 PM

Latest Report: Sep 16, 2014 at 9:00 PM


Visibility: 15 mi

Pressure: 29.93 "Hg

Humidity: 82%

Dew point: 50 °F

Location of CharlottetownLocation

Historic Weather in Charlottetown — Graph

°F

Charlottetown temperature yesterday

Maximum temperature yesterday: 55 °F (at 12:00 AM)
Minimum temperature yesterday: 48 °F (at 5:00 AM)
Average temperature yesterday: 52 °F

Past Weeks' High & Low Weather Summary

 TemperatureHumidityPressure
High79 °F (Sep 5, 3:00 PM)100% (Sep 1, 8:00 PM)30.49 "Hg (Sep 1, 8:00 PM)
Low39 °F (Sep 9, 5:00 AM)34% (Sep 9, 1:00 PM)29.67 "Hg (Sep 3, 2:00 PM)
Average61 °F79%30.03 "Hg
* Reported Sep 1 8:00 PM — Sep 16 8:00 PM, Charlottetown, Weather by CustomWeather, © 2014

Note: Actual official high and low records may vary slightly from our data, if they occured in-between our weather recording intervals... More about our weather records

Advertising

Charlottetown weather history for previous 24 hours

 ConditionsComfort  
Time TempWeatherWind HumidityBarometerVisibility
8:00 PM
Sep 16
57 °FBroken clouds.10 mph72%29.93 "Hg15 mi
7:00 PM59 °FBroken clouds.7 mph68%29.92 "Hg15 mi
6:00 PM61 °FPartly sunny.8 mph63%29.93 "Hg15 mi
5:00 PM61 °FMostly cloudy.10 mph59%29.93 "Hg15 mi
4:00 PM61 °FMostly cloudy.12 mph55%29.95 "Hg15 mi
3:00 PM61 °FPartly sunny.10 mph55%29.96 "Hg15 mi
2:00 PM61 °FPartly sunny.13 mph59%29.97 "Hg15 mi
1:00 PM63 °FBroken clouds.12 mph52%29.97 "Hg15 mi
12:00 PM61 °FPartly sunny.12 mph55%29.99 "Hg15 mi
11:00 AM59 °FPartly sunny.13 mph59%30.01 "Hg15 mi
10:00 AM57 °FScattered clouds.8 mph67%30.02 "Hg15 mi
9:00 AM52 °FScattered clouds.5 mph88%30.03 "Hg15 mi
8:00 AM50 °FPassing clouds.6 mph88%30.03 "Hg15 mi
7:00 AM48 °FPassing clouds.6 mph87%30.03 "Hg15 mi
6:00 AM46 °FPassing clouds.6 mph93%30.02 "Hg15 mi
5:00 AM46 °FPassing clouds.6 mph93%30.02 "Hg15 mi
4:00 AM46 °FPassing clouds.8 mph93%30.03 "Hg15 mi
3:00 AM46 °FPassing clouds.6 mph87%30.01 "Hg15 mi
2:00 AM45 °FPassing clouds.5 mph87%30.03 "Hg15 mi
1:00 AM48 °FPassing clouds.7 mph76%30.03 "Hg15 mi
12:00 AM48 °FPassing clouds.7 mph76%30.03 "Hg15 mi
11:00 PM
Sep 15
48 °FPassing clouds.5 mph71%30.05 "Hg15 mi
10:00 PM50 °FPassing clouds.3 mph67%30.05 "Hg15 mi
9:00 PM52 °FPassing clouds.2 mph67%30.05 "Hg15 mi
Weather by CustomWeather, © 2014

See weather overviewHow to use our weather pages